Regional Weather Roundup
Issued by NWS Sioux Falls, SD

Home | Current Version | Previous Version | Text Only | Print | Product List | Glossary On
Versions: 1 2 3 4 5 6 7 8 9 10 11 12 13 14 15 16 17 18 19 20 21 22 23 24 25 26 27 28 29 30 31 32 33 34 35 36 37 38 39 40 41 42 43 44 45 46 47 48 49 50
000
ASUS43 KFSD 231610
RWRFSD

WEATHER ROUNDUP FOR SE SOUTH DAKOTA/SW MINNESOTA/NW IOWA
NATIONAL WEATHER SERVICE SIOUX FALLS SD
1100 AM CDT THU MAR 23 2017

NOTE: "FAIR" INDICATES FEW OR NO CLOUDS BELOW 12,000 FEET WITH NO
SIGNIFICANT WEATHER AND OR OBSTRUCTIONS TO VISIBILITY.


SDZ038>040-050-052>070-231700-
SOUTHEAST SOUTH DAKOTA

CITY           SKY/WX    TMP DP  RH WIND       PRES   REMARKS
BROOKINGS      CLOUDY    40  25  55 S18G24    29.83F
CHAMBERLAIN    CLOUDY    49  37  61 SE13      29.73R
HURON          CLOUDY    43  29  57 S17G28    29.77F
MADISON        CLOUDY    39  28  65 SE14      29.82F
MITCHELL       LGT RAIN  43  30  60 SE21G30   29.79F
SIOUX FALLS    CLOUDY    45  29  53 SE16      29.86F
WINNER         CLOUDY    52  41  66 S21G28    29.69F
YANKTON        CLOUDY    43  36  75 SE17      29.83F
$$

MNZ071-072-080-081-089-090-097-098-231700-
SOUTHWEST MINNESOTA

CITY           SKY/WX    TMP DP  RH WIND       PRES   REMARKS
FAIRMONT       CLOUDY    39  27  60 S22G31    29.99F
JACKSON          N/A     41  27  56 SE17G25   29.97F
LUVERNE        CLOUDY    41  27  56 SE16G23   29.90F
MARSHALL       CLOUDY    43  25  49 S24       29.89F
MONTEVIDEO     CLOUDY    39  25  56 S16G23    29.94S
PIPESTONE      CLOUDY    39  23  52 S14G24    29.87S
REDWOOD FALLS  CLOUDY    39  25  57 SE20      29.97S
TRACY          PTSUNNY   43  28  56 S22G35    29.89F
WINDOM         MOSUNNY   43  27  52 SE22      29.95F
WORTHINGTON    CLOUDY    39  25  57 SE20G26   29.93F
$$

IAZ001>003-012>014-020>022-031-032-NEZ013-014-SDZ071-231700-
NORTHWEST IOWA

CITY           SKY/WX    TMP DP  RH WIND       PRES   REMARKS
CHEROKEE       CLOUDY    44  28  54 SE14G21   29.94F
DENISON        CLOUDY    48  32  53 SE17G29   29.92F
ESTHERVILLE    CLOUDY    39  26  59 S26G32    29.98S
LE MARS        CLOUDY    45  32  61 SE14      29.90F
ORANGE CITY    LGT RAIN  43  30  61 SE7       29.94R
SHELDON        CLOUDY    41  30  65 SE17G26   29.89F
SIOUX CITY     CLOUDY    47  33  58 SE16G25   29.88F
SPENCER        CLOUDY    42  25  50 SE17      29.97F
STORM LAKE     CLOUDY    43  25  49 SE17G29   29.95F
$$

ABBREVIATIONS USED IN REMARKS
   TC - TEMPERATURE IN CELSIUS
  WCI - WIND CHILL INDEX
   HX - HEAT INDEX
  VSB - VISIBILITY




USA.gov is the U.S. government's official web portal to all federal, state and local government web resources and services.